Time,TemperatureF,DewpointF,PressureIn,WindDirection,WindDirectionDegrees,WindSpeedMPH,WindSpeedGustMPH,Humidity,HourlyPrecipIn,Conditions,Clouds,dailyrainin,SolarRadiationWatts/m^2,SoftwareType,DateUTC
2013-09-26 00:04:00,56.0,49.0,29.99,ENE,73,2.0,7.0,78,0.00,,,0.09,0.000000,,2013-09-26 04:04:00,
2013-09-26 00:10:00,55.0,52.0,29.99,NE,40,4.0,6.0,91,0.00,,,0.09,0.000000,,2013-09-26 04:10:00,
2013-09-26 00:44:00,55.0,52.0,29.99,NE,40,4.0,6.0,91,0.00,,,0.09,0.000000,,2013-09-26 04:44:00,
2013-09-26 00:54:00,55.0,52.0,29.99,NE,40,4.0,6.0,91,0.00,,,0.09,0.000000,,2013-09-26 04:54:00,
2013-09-26 01:04:00,55.0,52.0,29.99,NE,40,4.0,6.0,91,0.00,,,0.09,0.000000,,2013-09-26 05:04:00,
2013-09-26 01:10:00,55.0,52.0,29.98,NNE,18,4.0,5.0,88,0.00,,,0.09,0.000000,,2013-09-26 05:10:00,
2013-09-26 01:43:00,55.0,52.0,29.98,NNE,18,4.0,5.0,88,0.00,,,0.09,0.000000,,2013-09-26 05:43:00,
2013-09-26 01:52:00,55.0,52.0,29.98,NNE,18,4.0,5.0,88,0.00,,,0.09,0.000000,,2013-09-26 05:52:00,
2013-09-26 02:02:00,55.0,52.0,29.98,NNE,18,4.0,5.0,88,0.00,,,0.09,0.000000,,2013-09-26 06:02:00,
2013-09-26 02:10:00,57.0,52.0,29.98,NNE,15,5.0,6.0,82,0.00,,,0.09,0.000000,,2013-09-26 06:10:00,
2013-09-26 02:42:00,57.0,52.0,29.98,NNE,15,5.0,6.0,82,0.00,,,0.09,0.000000,,2013-09-26 06:42:00,
2013-09-26 02:54:00,57.0,52.0,29.98,NNE,15,5.0,6.0,82,0.00,,,0.09,0.000000,,2013-09-26 06:54:00,
2013-09-26 03:02:00,57.0,52.0,29.98,NNE,15,5.0,6.0,82,0.00,,,0.09,0.000000,,2013-09-26 07:02:00,
2013-09-26 03:10:00,56.0,55.0,29.98,North,10,6.0,7.0,95,0.00,,,0.09,0.000000,,2013-09-26 07:10:00,
2013-09-26 03:42:00,56.0,55.0,29.98,North,10,6.0,7.0,95,0.00,,,0.09,0.000000,,2013-09-26 07:42:00,
2013-09-26 03:53:00,56.0,55.0,29.98,North,10,6.0,7.0,95,0.00,,,0.09,0.000000,,2013-09-26 07:53:00,
2013-09-26 04:03:00,56.0,55.0,29.98,North,10,6.0,7.0,95,0.00,,,0.09,0.000000,,2013-09-26 08:03:00,
2013-09-26 04:10:00,56.0,53.0,29.97,NNE,14,6.0,8.0,91,0.00,,,0.09,0.000000,,2013-09-26 08:10:00,
2013-09-26 04:42:00,56.0,53.0,29.97,NNE,14,6.0,8.0,91,0.00,,,0.09,0.000000,,2013-09-26 08:42:00,
2013-09-26 04:52:00,56.0,53.0,29.97,NNE,14,6.0,8.0,91,0.00,,,0.09,0.000000,,2013-09-26 08:52:00,
2013-09-26 05:02:00,56.0,53.0,29.97,NNE,14,6.0,8.0,91,0.00,,,0.09,0.000000,,2013-09-26 09:02:00,
2013-09-26 05:10:00,56.0,53.0,29.97,NNE,16,6.0,9.0,89,0.00,,,0.09,0.000000,,2013-09-26 09:10:00,
2013-09-26 05:43:00,56.0,53.0,29.97,NNE,16,6.0,9.0,89,0.00,,,0.09,0.000000,,2013-09-26 09:43:00,
2013-09-26 05:54:00,56.0,53.0,29.97,NNE,16,6.0,9.0,89,0.00,,,0.09,0.000000,,2013-09-26 09:54:00,
2013-09-26 06:03:00,56.0,53.0,29.97,NNE,16,6.0,9.0,89,0.00,,,0.09,0.000000,,2013-09-26 10:03:00,
2013-09-26 06:10:00,54.0,52.0,29.98,NNE,14,8.0,13.0,94,0.00,,,0.09,0.000000,,2013-09-26 10:10:00,
2013-09-26 06:42:00,54.0,52.0,29.98,NNE,14,8.0,13.0,94,0.00,,,0.09,0.000000,,2013-09-26 10:42:00,
2013-09-26 06:53:00,54.0,52.0,29.98,NNE,14,8.0,13.0,94,0.00,,,0.09,0.000000,,2013-09-26 10:53:00,
2013-09-26 07:02:00,54.0,52.0,29.98,NNE,14,8.0,13.0,94,0.00,,,0.09,0.000000,,2013-09-26 11:02:00,
2013-09-26 07:10:00,55.0,51.0,29.99,NNE,19,5.0,10.0,87,0.00,,,-99.99,0.000000,,2013-09-26 11:10:00,
2013-09-26 07:42:00,55.0,51.0,29.99,NNE,19,5.0,10.0,87,0.00,,,-99.99,0.000000,,2013-09-26 11:42:00,
2013-09-26 07:52:00,55.0,51.0,29.99,NNE,19,5.0,10.0,87,0.00,,,-99.99,0.000000,,2013-09-26 11:52:00,
2013-09-26 08:02:00,55.0,51.0,29.99,NNE,19,5.0,10.0,87,0.00,,,-99.99,0.000000,,2013-09-26 12:02:00,
2013-09-26 08:10:00,55.0,52.0,30.01,NNE,14,5.0,8.0,91,0.00,,,0.09,0.000000,,2013-09-26 12:10:00,
2013-09-26 08:42:00,55.0,52.0,30.01,NNE,14,5.0,8.0,91,0.00,,,0.09,0.000000,,2013-09-26 12:42:00,
2013-09-26 08:52:00,55.0,52.0,30.01,NNE,14,5.0,8.0,91,0.00,,,0.09,0.000000,,2013-09-26 12:52:00,
2013-09-26 09:02:00,55.0,52.0,30.01,NNE,14,5.0,8.0,91,0.00,,,0.09,0.000000,,2013-09-26 13:02:00,
2013-09-26 09:10:00,58.0,53.0,30.04,NNE,17,4.0,8.0,83,0.00,,,0.09,18.000000,,2013-09-26 13:10:00,
2013-09-26 09:42:00,58.0,53.0,30.04,NNE,17,4.0,8.0,83,0.00,,,0.09,18.000000,,2013-09-26 13:42:00,
2013-09-26 09:52:00,58.0,53.0,30.04,NNE,17,4.0,8.0,83,0.00,,,0.09,18.000000,,2013-09-26 13:52:00,
2013-09-26 10:02:00,58.0,53.0,30.04,NNE,17,4.0,8.0,83,0.00,,,0.09,18.000000,,2013-09-26 14:02:00,
2013-09-26 10:10:00,61.0,55.0,30.06,North,2,3.0,8.0,81,0.00,,,0.09,116.000000,,2013-09-26 14:10:00,
2013-09-26 10:42:00,61.0,55.0,30.06,North,2,3.0,8.0,81,0.00,,,0.09,116.000000,,2013-09-26 14:42:00,
2013-09-26 10:52:00,61.0,55.0,30.06,North,2,3.0,8.0,81,0.00,,,0.09,116.000000,,2013-09-26 14:52:00,
2013-09-26 11:02:00,61.0,55.0,30.06,North,2,3.0,8.0,81,0.00,,,0.09,116.000000,,2013-09-26 15:02:00,
2013-09-26 11:10:00,63.0,53.0,30.07,NE,35,3.0,5.0,71,0.01,,,0.10,232.000000,,2013-09-26 15:10:00,
2013-09-26 11:44:00,63.0,53.0,30.07,NE,35,3.0,5.0,71,0.01,,,0.10,232.000000,,2013-09-26 15:44:00,
2013-09-26 11:54:00,63.0,53.0,30.07,NE,35,3.0,5.0,71,0.01,,,0.10,232.000000,,2013-09-26 15:54:00,
2013-09-26 12:04:00,63.0,53.0,30.07,NE,35,3.0,5.0,71,0.01,,,0.10,232.000000,,2013-09-26 16:04:00,
2013-09-26 12:10:00,68.0,58.0,30.07,NNE,26,3.0,8.0,70,0.00,,,0.08,314.000000,,2013-09-26 16:10:00,
2013-09-26 12:43:00,68.0,58.0,30.07,NNE,26,3.0,8.0,70,0.00,,,0.08,314.000000,,2013-09-26 16:43:00,
2013-09-26 12:54:00,68.0,58.0,30.07,NNE,26,3.0,8.0,70,0.00,,,0.08,314.000000,,2013-09-26 16:54:00,
2013-09-26 13:04:00,68.0,58.0,30.07,NNE,26,3.0,8.0,70,0.00,,,0.08,314.000000,,2013-09-26 17:04:00,
2013-09-26 13:10:00,71.0,57.0,30.07,North,5,2.0,11.0,61,0.00,,,0.08,438.000000,,2013-09-26 17:10:00,
2013-09-26 13:43:00,71.0,57.0,30.07,North,5,2.0,11.0,61,0.00,,,0.08,438.000000,,2013-09-26 17:43:00,
2013-09-26 13:53:00,71.0,57.0,30.07,North,5,2.0,11.0,61,0.00,,,0.08,438.000000,,2013-09-26 17:53:00,
2013-09-26 14:02:00,71.0,57.0,30.07,North,5,2.0,11.0,61,0.00,,,0.08,438.000000,,2013-09-26 18:02:00,
2013-09-26 14:10:00,74.0,57.0,30.06,NW,306,3.0,11.0,55,0.00,,,0.08,864.000000,,2013-09-26 18:10:00,
2013-09-26 14:42:00,74.0,57.0,30.06,NW,306,3.0,11.0,55,0.00,,,0.08,864.000000,,2013-09-26 18:42:00,
2013-09-26 14:52:00,74.0,57.0,30.06,NW,306,3.0,11.0,55,0.00,,,0.08,864.000000,,2013-09-26 18:52:00,
2013-09-26 15:03:00,74.0,57.0,30.06,NW,306,3.0,11.0,55,0.00,,,0.08,864.000000,,2013-09-26 19:03:00,
2013-09-26 15:10:00,73.0,52.0,30.06,NNW,338,3.0,11.0,47,0.00,,,0.06,1040.000000,,2013-09-26 19:10:00,
2013-09-26 15:44:00,73.0,52.0,30.06,NNW,338,3.0,11.0,47,0.00,,,0.06,1040.000000,,2013-09-26 19:44:00,
2013-09-26 15:52:00,73.0,52.0,30.06,NNW,338,3.0,11.0,47,0.00,,,0.06,1040.000000,,2013-09-26 19:52:00,
2013-09-26 16:03:00,73.0,52.0,30.06,NNW,338,3.0,11.0,47,0.00,,,0.06,1040.000000,,2013-09-26 20:03:00,
2013-09-26 16:10:00,74.0,52.0,30.05,NNW,344,3.0,10.0,47,0.00,,,0.03,971.000000,,2013-09-26 20:10:00,
2013-09-26 16:43:00,74.0,52.0,30.05,NNW,344,3.0,10.0,47,0.00,,,0.03,971.000000,,2013-09-26 20:43:00,
2013-09-26 16:53:00,74.0,52.0,30.05,NNW,344,3.0,10.0,47,0.00,,,0.03,971.000000,,2013-09-26 20:53:00,
2013-09-26 17:02:00,74.0,52.0,30.05,NNW,344,3.0,10.0,47,0.00,,,0.03,971.000000,,2013-09-26 21:02:00,
2013-09-26 17:10:00,74.0,54.0,30.06,SE,128,3.0,6.0,49,0.00,,,0.01,821.000000,,2013-09-26 21:10:00,
2013-09-26 17:44:00,74.0,54.0,30.06,SE,128,3.0,6.0,49,0.00,,,0.01,821.000000,,2013-09-26 21:44:00,
2013-09-26 17:54:00,74.0,54.0,30.06,SE,128,3.0,6.0,49,0.00,,,0.01,821.000000,,2013-09-26 21:54:00,
2013-09-26 18:04:00,74.0,54.0,30.06,SE,128,3.0,6.0,49,0.00,,,0.01,821.000000,,2013-09-26 22:04:00,
2013-09-26 18:10:00,69.0,53.0,30.06,SSE,154,5.0,9.0,56,0.00,,,0.01,587.000000,,2013-09-26 22:10:00,
2013-09-26 18:43:00,69.0,53.0,30.06,SSE,154,5.0,9.0,56,0.00,,,0.01,587.000000,,2013-09-26 22:43:00,
2013-09-26 18:54:00,69.0,53.0,30.06,SSE,154,5.0,9.0,56,0.00,,,0.01,587.000000,,2013-09-26 22:54:00,
2013-09-26 19:03:00,69.0,53.0,30.06,SSE,154,5.0,9.0,56,0.00,,,0.01,587.000000,,2013-09-26 23:03:00,
2013-09-26 19:43:00,64.0,52.0,30.08,SE,129,2.0,6.0,64,0.00,,,0.01,299.000000,,2013-09-26 23:43:00,
2013-09-26 19:53:00,64.0,52.0,30.08,SE,129,2.0,6.0,64,0.00,,,0.01,299.000000,,2013-09-26 23:53:00,
2013-09-26 20:02:00,64.0,52.0,30.08,SE,129,2.0,6.0,64,0.00,,,0.01,299.000000,,2013-09-27 00:02:00,
2013-09-26 20:10:00,60.0,51.0,30.09,ENE,72,3.0,8.0,72,0.00,,,0.01,90.000000,,2013-09-27 00:10:00,
2013-09-26 20:43:00,60.0,51.0,30.09,ENE,72,3.0,8.0,72,0.00,,,0.01,90.000000,,2013-09-27 00:43:00,
2013-09-26 20:52:00,60.0,51.0,30.09,ENE,72,3.0,8.0,72,0.00,,,0.01,90.000000,,2013-09-27 00:52:00,
2013-09-26 21:01:00,60.0,51.0,30.09,ENE,72,3.0,8.0,72,0.00,,,0.01,90.000000,,2013-09-27 01:01:00,
2013-09-26 21:10:00,60.0,54.0,30.11,NNE,13,5.0,6.0,82,0.00,,,0.01,1.000000,,2013-09-27 01:10:00,
2013-09-26 21:42:00,60.0,54.0,30.11,NNE,13,5.0,6.0,82,0.00,,,0.01,1.000000,,2013-09-27 01:42:00,
2013-09-26 21:52:00,60.0,54.0,30.11,NNE,13,5.0,6.0,82,0.00,,,0.01,1.000000,,2013-09-27 01:52:00,
2013-09-26 22:02:00,60.0,54.0,30.11,NNE,13,5.0,6.0,82,0.00,,,0.01,1.000000,,2013-09-27 02:02:00,
2013-09-26 22:10:00,59.0,54.0,30.13,NNE,13,4.0,7.0,84,0.00,,,0.01,0.000000,,2013-09-27 02:10:00,
2013-09-26 22:43:00,59.0,54.0,30.13,NNE,13,4.0,7.0,84,0.00,,,0.01,0.000000,,2013-09-27 02:43:00,
2013-09-26 22:53:00,59.0,54.0,30.13,NNE,13,4.0,7.0,84,0.00,,,0.01,0.000000,,2013-09-27 02:53:00,
2013-09-26 23:02:00,59.0,54.0,30.13,NNE,13,4.0,7.0,84,0.00,,,0.01,0.000000,,2013-09-27 03:02:00,
2013-09-26 23:10:00,59.0,54.0,30.13,NE,36,4.0,5.0,82,0.00,,,0.01,0.000000,,2013-09-27 03:10:00,
2013-09-26 23:45:00,59.0,54.0,30.13,NE,36,4.0,5.0,82,0.00,,,0.01,0.000000,,2013-09-27 03:45:00,
2013-09-26 23:55:00,59.0,54.0,30.13,NE,36,4.0,5.0,82,0.00,,,0.01,0.000000,,2013-09-27 03:55:00,